Regional Weather Roundup
Issued by NWS

Home | Current Version | Previous Version | Graphics & Text | Print | Product List | Glossary On
Versions: 1 2 3 4 5 6 7 8 9 10 11 12 13 14 15 16 17 18 19 20 21 22 23 24 25 26 27 28 29 30 31 32 33 34 35 36 37 38 39 40 41 42 43 44 45 46 47 48 49 50
000
ASUS43 KFSD 080210
RWRSD

WEATHER ROUNDUP FOR SOUTH DAKOTA
NATIONAL WEATHER SERVICE SIOUX FALLS SD
800 PM CST WED DEC 07 2016

NOTE: "FAIR" INDICATES FEW OR NO CLOUDS BELOW 12,000 FEET WITH NO
SIGNIFICANT WEATHER AND/OR OBSTRUCTIONS TO VISIBILITY.


SDZ001>005-009-010-012>017-080300-
NORTHWEST AND NORTH CENTRAL SOUTH DAKOTA

CITY           SKY/WX    TMP DP  RH WIND       PRES   REMARKS
BUFFALO          N/A      3  -5  69 NW24      30.37R WCI -20
FAITH            N/A      2  -4  76 NW25G33   30.42R WCI -22
MOBRIDGE       MIX PCPN   5  -3  69 NW30G40   30.39R WCI -19
$$

SDZ012>016-024>037-041>051-057-063-072>074-080300-
SOUTHWEST AND SOUTH CENTRAL SOUTH DAKOTA

CITY           SKY/WX    TMP DP  RH WIND       PRES   REMARKS
RAPID CTY ARPT CLEAR      0  -7  72 N9        30.44R WCI -15
PIERRE         MOCLDY     9   1  70 NW33G39   30.45R WCI -15
CUSTER         CLEAR     -1 -12  59 NE5       30.21R WCI -11
ELLSWORTH AFB  CLEAR      4  -5  65 NW12      30.42R WCI -12
PHILIP         CLEAR      7  -2  66 NW18G30   30.48R WCI -12
PINE RIDGE     CLEAR     -4  -8  83 SW7       30.43R WCI -18
SPEARFISH      FAIR       3  -6  66 W12G18    30.41R WCI -13
WINNER         FAIR      10   1  67 W14       30.45R WCI  -6
$$

SDZ004>011-016>023-039-040-080300-
NORTHEAST SOUTH DAKOTA

CITY           SKY/WX    TMP DP  RH WIND       PRES   REMARKS
ABERDEEN       LGT SNOW   8   2  76 NW25G31   30.33S WCI -13
WATERTOWN      CLOUDY     6   1  80 W22G31    30.24R WCI -15
BROOKINGS      FLURRIES   7   2  80 NW28G39   30.24S WCI -16
SISSETON         N/A     11   5  77 NW24G32   30.21S WCI  -9
$$

SDZ017-020-022-023-036>040-048>070-080300-
SOUTHEAST SOUTH DAKOTA

CITY           SKY/WX    TMP DP  RH WIND       PRES   REMARKS
SIOUX FALLS    PTCLDY    12   4  70 NW20G33   30.31R WCI  -6
HURON          LGT SNOW   9   3  77 NW26G32   30.39R WCI -13
CHAMBERLAIN    CLOUDY    12   4  68 W22G30    30.44R WCI  -7
MITCHELL       CLOUDY    12   2  64 NW21G33   30.41R WCI  -7
YANKTON        CLEAR     14   3  62 W22G30    30.39R WCI  -4
$$

ABBREVIATIONS USED IN REMARKS
   TC - TEMPERATURE IN CELSIUS
  WCI - WIND CHILL INDEX
   HX - HEAT INDEX
  VSB - VISIBILITY





USA.gov is the U.S. government's official web portal to all federal, state and local government web resources and services.